Lid_Strength_Index
2 2 3 4 9 10 12 10 9 9 9 7 6 7 8 9 10 11 6 6 5 4 4 4 2 2 1 1 1 2 3 2 2 2 1 1 1 0 -1 -1 -1 -1 -1 -1 -1 -2 -1 -1 -1
5 4 4 6 12 14 12 10 10 9 7 7 7 7 8 10 8 8 7 4 4 4 4 4 2 2 1 1 0 0 1 2 2 2 3 2 2 2 1 0 -1 -1 -1 -1 -1 -1 -1 -1 -1
6 4 6 10 11 14 13 11 10 8 7 8 9 8 8 10 7 7 5 4 4 4 4 4 2 1 1 1 1 1 1 0 0 1 2 3 3 3 3 2 1 -1 -0 -1 -1 -1 -1 -1 -1
6 6 8 12 12 10 11 10 10 9 8 8 8 10 9 8 7 6 5 5 6 5 5 3 2 2 2 2 2 2 2 2 2 1 1 1 2 4 3 4 3 2 0 0 -0 -1 -1 -1 -1
6 7 12 13 13 11 10 10 10 11 10 9 9 9 10 9 6 6 7 6 7 7 6 6 4 3 3 3 3 3 3 3 3 2 2 2 2 2 2 2 4 4 3 1 0 1 0 -1 -1
10 10 14 15 13 10 11 11 11 11 10 10 10 10 11 8 8 7 7 7 7 8 8 7 6 5 5 4 4 4 4 4 4 3 3 3 3 3 2 2 2 1 4 4 2 1 1 0 -1
10 11 14 14 13 12 11 10 13 12 11 11 9 12 11 10 8 7 8 8 8 8 8 8 8 7 6 5 6 5 5 5 4 4 4 4 4 4 4 3 3 2 2 4 5 4 3 1 -0
11 11 14 13 13 13 12 11 11 12 12 10 10 12 13 10 7 7 8 8 9 9 8 9 9 8 9 8 7 7 6 6 5 5 5 5 5 5 5 5 4 3 3 2 2 4 5 4 2
9 15 15 13 13 13 11 13 11 11 12 12 11 11 11 8 8 9 10 9 9 9 9 9 9 9 9 9 8 6 6 6 6 6 6 6 7 7 7 5 5 4 4 3 3 2 2 4 4
12 14 13 12 13 13 12 13 12 13 12 12 12 11 9 9 9 10 10 11 10 10 10 10 10 10 9 9 9 9 8 9 9 8 9 8 8 8 6 6 4 5 4 4 3 2 1 1 4
12 14 11 12 11 12 12 13 12 13 13 12 12 11 10 10 10 10 10 10 10 9 10 10 10 10 10 10 10 10 10 10 9 9 9 9 9 8 8 8 7 7 6 6 6 5 5 4 3
14 11 11 11 11 12 13 12 12 12 11 11 11 10 10 10 10 10 10 9 9 10 10 10 11 11 11 11 11 11 10 10 10 10 9 10 10 10 9 9 8 8 7 7 7 6 6 5 4
12 12 11 11 11 12 11 13 13 12 10 10 10 10 10 11 10 10 10 9 9 10 10 11 11 11 11 11 11 11 11 11 11 11 10 10 11 11 10 9 9 8 8 8 8 7 7 6 5
12 12 12 11 11 11 12 13 12 11 10 11 10 11 10 10 10 10 10 10 9 9 11 11 11 12 12 12 12 12 12 12 11 11 11 10 11 11 11 10 10 9 8 8 8 8 8 7 6
12 14 12 11 11 12 12 14 14 11 10 11 11 11 11 10 10 10 9 10 9 10 10 11 11 12 12 13 13 13 12 12 12 12 11 11 10 11 11 11 11 10 9 9 9 8 8 8 7
13 13 15 12 12 12 13 16 12 11 12 12 12 11 10 10 10 10 10 10 10 10 11 11 11 12 13 13 13 13 13 13 13 12 12 11 11 11 11 11 11 10 9 9 9 9 8 8 8
13 17 14 13 11 12 14 15 11 11 11 11 11 11 11 11 10 10 10 11 11 11 11 12 12 13 13 13 13 13 13 13 13 13 13 12 11 11 12 11 11 10 9 9 8 9 9 9 8
16 16 14 15 13 13 14 14 11 10 10 10 11 11 11 11 11 10 10 11 11 12 12 12 13 13 13 13 13 14 13 13 13 13 13 12 12 11 11 11 10 9 10 9 9 8 7 8 8
14 16 16 13 12 14 14 14 12 11 11 11 11 11 12 13 12 11 11 12 12 13 13 13 13 14 14 15 16 15 16 15 14 13 12 11 10 10 11 10 10 10 10 10 9 8 8 8 7
14 16 16 13 13 14 15 15 12 11 12 13 12 12 12 13 13 12 12 13 13 13 13 13 13 14 15 15 16 15 15 13 13 12 11 11 11 10 11 11 11 10 10 10 9 8 9 8 8
15 16 16 17 14 13 15 16 14 12 12 11 12 12 12 12 14 14 13 14 13 14 14 14 14 14 15 14 14 13 13 13 13 12 12 12 11 11 10 11 11 10 10 9 8 7 8 9 8
17 14 15 16 17 19 15 21 14 12 13 12 12 13 13 14 13 13 13 14 14 15 15 15 15 15 14 14 14 15 15 15 14 14 13 13 12 11 11 10 10 10 9 9 8 7 8 8 9
16 13 15 16 17 18 16 21 15 13 15 15 14 14 14 14 15 15 15 15 15 15 15 16 15 15 14 14 14 15 15 15 14 14 14 13 13 12 11 11 11 10 10 10 9 9 9 8 9
13 15 14 15 15 20 18 18 18 18 17 15 14 14 14 14 14 14 14 14 15 15 16 15 15 15 14 15 15 15 16 16 16 15 15 14 14 13 12 11 11 10 10 9 8 8 7 8 8
14 16 21 21 23 23 17 19 18 16 15 16 16 15 15 14 14 15 15 16 16 15 15 15 15 16 15 15 16 16 16 16 16 16 15 14 14 14 13 12 12 11 11 10 9 8 7 7 7
15 16 20 23 23 21 17 23 18 16 16 15 16 15 14 14 14 15 15 15 16 15 16 16 16 16 15 17 16 16 16 15 14 14 14 14 15 14 12 12 12 12 11 11 10 10 9 8 8
16 16 15 18 22 23 20 18 16 15 14 14 16 14 14 14 13 15 16 15 16 16 16 16 16 16 17 17 17 17 15 14 15 15 15 15 14 14 13 13 13 12 12 12 11 11 11 9 9
14 14 19 20 26 24 19 20 19 18 18 15 15 15 14 13 14 14 15 15 15 16 17 17 17 20 20 18 18 16 15 15 15 15 16 15 15 14 14 14 13 13 13 15 14 12 10 10 9
15 17 16 17 19 23 23 21 17 17 18 19 16 14 14 14 15 15 15 16 19 20 21 21 21 22 21 20 19 18 16 15 16 16 16 15 15 14 14 13 13 13 13 13 12 12 11 11 11
14 14 15 20 20 21 21 21 19 19 18 16 15 14 14 15 15 17 17 19 22 23 22 23 23 24 22 21 20 18 16 16 16 16 16 15 15 14 14 14 14 13 14 13 15 14 13 12 12